This demonstration page uses our WeatherBlox Daily Observations layout. Learn more.

Left ArrowRight Arrow

31.84235, -102.49876

Hourly Observations for November 26, 2015

Temp ( °F °C ) Dew Point ( °F °C ) Humidity (%) Winds ( mph kmh ) Pressure ( in mb ) Visibility ( mi km ) Precip ( " mm )
12:53 am 00:53 Cloudy 65 18.3 58 14.4 78 78 S 28 44 29.88 1012 10 16 0.00 0.00
1:53 am 01:53 Cloudy 65 18.3 58 14.4 78 78 S 17 28 29.87 1012 10 16 0.00 0.00
2:53 am 02:53 Cloudy 66 18.9 58 14.4 75 75 S 21 33 29.87 1012 10 16 0.00 0.00
3:53 am 03:53 Cloudy 65 18.3 58 14.4 78 78 S 18 30 29.87 1012 10 16 0.00 0.00
4:53 am 04:53 Mostly Cloudy 65 18.3 59 15 81 81 S 16 26 29.89 1012 10 16 0.00 0.00
5:53 am 05:53 Cloudy 64 17.8 60 15.6 87 87 SSW 16 26 29.91 1013 10 16 0.00 0.03
6:53 am 06:53 Cloudy with Light Rain 64 17.8 60 15.6 87 87 S 23 37 29.94 1014 6 10 0.01 0.25
7:53 am 07:53 Mostly Sunny 63 17.2 60 15.6 90 90 SSE 20 31 29.92 1013 8 13 0.05 1.27
8:53 am 08:53 Sunny 63 17.2 60 15.6 90 90 S 16 26 29.94 1014 9 14 0.00 0.00
9:53 am 09:53 Sunny 66 18.9 61 16.1 84 84 S 16 26 29.94 1014 10 16 0.00 0.00
10:53 am 10:53 Sunny 68 20 60 15.6 76 76 S 20 31 29.94 1014 10 16 0.00 0.00
11:53 am 11:53 Mostly Sunny 70 21.1 60 15.6 71 71 S 20 31 29.92 1013 10 16 0.00 0.00
12:53 pm 12:53 Mostly Cloudy 68 20 61 16.1 78 78 S 20 31 29.92 1013 10 16 0.00 0.03
1:53 pm 13:53 Mostly Cloudy 68 20 62 16.7 81 81 SSW 26 43 29.90 1013 10 16 0.02 0.51
2:53 pm 14:53 Partly Cloudy 68 20 62 16.7 81 81 S 21 33 29.88 1012 8 13 0.00 0.00
3:08 pm 15:08 Mostly Cloudy 68 20 62 16.7 81 81 S 17 28 29.88 1012 8 13 0.00 0.00
3:27 pm 15:27 Partly Cloudy 69 20.6 61 16.1 76 76 S 23 37 29.85 1011 9 14 0.00 0.00
3:53 pm 15:53 Mostly Cloudy 67 19.4 61 16.1 81 81 S 20 31 29.87 1012 9 14 0.00 0.00
4:53 pm 16:53 Cloudy 67 19.4 61 16.1 81 81 S 16 26 29.90 1013 9 14 0.00 0.03
5:27 pm 17:27 Cloudy 66 18.9 62 16.7 87 87 S 15 24 29.88 1012 7 11 0.00 0.00
5:53 pm 17:53 Cloudy 66 18.9 62 16.7 87 87 S 17 28 29.91 1013 8 13 0.00 0.00
6:53 pm 18:53 Cloudy with Light Rain 65 18.3 62 16.7 90 90 S 20 31 29.95 1014 7 11 0.00 0.03
7:34 pm 19:34 Cloudy with Rain 65 18.3 62 16.7 90 90 S 21 33 29.97 1015 4 6 0.05 1.27
7:53 pm 19:53 Cloudy with Light Rain 65 18.3 62 16.7 90 90 S 20 31 29.94 1014 5 8 0.06 1.52
8:53 pm 20:53 Mostly Cloudy with Mist and Fog 64 17.8 61 16.1 90 90 S 13 20 29.93 1014 6 10 0.00 0.03
9:25 pm 21:25 Partly Cloudy with Mist and Fog 64 17.8 61 16.1 90 90 S 10 17 29.94 1014 6 10 0.00 0.00
9:34 pm 21:34 Mostly Cloudy with Mist and Fog 64 17.8 61 16.1 90 90 S 12 19 29.97 1015 6 10 0.00 0.00
9:53 pm 21:53 Cloudy with Mist and Fog 64 17.8 62 16.7 93 93 S 17 28 29.96 1015 6 10 0.00 0.00
10:53 pm 22:53 Cloudy with Light Rain 64 17.8 62 16.7 93 93 S 20 31 29.97 1015 6 10 0.01 0.25
11:05 pm 23:05 Cloudy with Rain 64 17.8 62 16.7 93 93 S 16 26 29.97 1015 5 8 0.01 0.25
11:29 pm 23:29 Cloudy with Light Rain 64 17.8 62 16.7 93 93 S 14 22 30.00 1016 6 10 0.02 0.51
11:44 pm 23:44 Cloudy with Light Rain 64 17.8 62 16.7 93 93 SSW 12 19 30.00 1016 4 6 0.03 0.76
11:53 pm 23:53 Cloudy with Rain 64 17.8 62 16.7 93 93 SSW 12 19 29.98 1015 3 5 0.05 1.27

Powered by AerisWeather